User: anonymous   Login
Location: *
(53.9002°N, 27.5624°E)
Time: 14:57:44
(UTC+00:00)
Language:

CENTAUR R/B - Orbit

View from above orbital plane
View from above orbital plane
View from above satellite
View from above satellite

Ground track
Ground track

The orbit data is extracted from the following two-line orbital elements,

1 26906U 01040B   20018.23304148 0.00000000  00000-0  00000-0 0    07
2 26906  63.4485  68.9125 0430002 339.9473  20.0527 13.44052007    05
Epoch (UTC): 18 January 2020 05:35:34
Eccentricity: 0.0430002
inclination: 63.4485°
perigee height: 773 km
apogee height: 1415 km
right ascension of ascending node: 68.9125°
argument of perigee: 339.9473°
revolutions per day: 13.44052007
mean anomaly at epoch: 20.0527°
orbit number at epoch: 0

The dashed part of the orbit path shows where the satellite is in the earth's shadow,  

DLR